Location: Estes Par
(40.3770°N, 105.5210°W)
Time: 23:49:05
(UTC-06:00)

Vanguard 3 - All Passes

Search period start: 20 July 2018 00:00
Search period end: 30 July 2018 00:00
Orbit: 508 x 3264 km, 33.3° (Epoch: 20 July)

Date Brightness Start Highest point End Pass type
(mag) Time Alt. Az. Time Alt. Az. Time Alt. Az.
20 Jul - 14:47:48 10° S 14:57:14 16° SE 15:05:17 10° ESE daylight
20 Jul - 16:56:28 10° SW 17:11:33 37° SSE 17:21:35 10° E daylight
20 Jul - 19:11:24 10° WSW 19:25:24 54° S 19:33:21 10° E daylight
20 Jul - 21:27:55 10° W 21:37:59 49° SSW 21:43:44 10° ESE visible
20 Jul - 23:44:12 10° WSW 23:48:48 19° SW 23:52:15 10° S visible
21 Jul - 15:41:34 10° SSW 15:56:03 29° SSE 16:06:53 10° E daylight
21 Jul - 17:54:38 10° SW 18:10:24 49° SSE 18:19:57 10° E daylight
21 Jul - 20:11:03 10° WSW 20:23:50 57° S 20:30:57 10° ESE daylight
21 Jul - 22:27:39 10° W 22:35:40 35° SSW 22:40:37 10° SE visible
22 Jul - 14:28:23 10° S 14:40:27 20° SE 14:50:38 10° ESE daylight
22 Jul - 16:38:26 10° SW 16:54:58 42° SSE 17:06:03 10° E daylight
22 Jul - 18:53:55 10° WSW 19:09:09 58° S 19:17:51 10° E daylight
22 Jul - 21:10:55 10° W 21:22:00 50° SSW 21:28:16 10° ESE visible
22 Jul - 23:27:53 10° W 23:32:48 18° SW 23:36:26 10° S visible
23 Jul - 13:19:23 10° SSE 13:24:56 12° SE 13:30:13 10° ESE daylight
23 Jul - 15:23:16 10° SSW 15:39:16 33° SSE 15:51:22 10° E daylight
23 Jul - 17:36:57 10° WSW 17:53:56 54° SSE 18:04:22 10° E daylight
23 Jul - 19:53:46 10° W 20:07:42 59° S 20:15:28 10° ESE daylight
23 Jul - 22:10:52 10° W 22:19:38 34° SSW 22:25:03 10° SE visible
24 Jul - 14:09:37 10° S 14:23:31 24° SE 14:35:24 10° E daylight
24 Jul - 16:20:35 10° SW 16:38:15 47° SSE 16:50:22 10° E daylight
24 Jul - 18:36:27 10° WSW 18:52:48 62° S 19:02:17 10° E daylight
24 Jul - 20:53:49 10° W 21:05:53 50° SSW 21:12:45 10° SE visible
24 Jul - 23:11:30 10° W 23:16:42 18° SW 23:20:34 10° S visible
25 Jul - 12:58:44 10° SSE 13:07:57 15° SE 13:16:41 10° ESE daylight
25 Jul - 15:05:14 10° SSW 15:22:20 38° SSE 15:35:39 10° E daylight
25 Jul - 17:19:20 10° WSW 17:37:20 58° SSE 17:48:40 10° E daylight
25 Jul - 19:36:28 10° W 19:51:27 60° S 19:59:55 10° ESE daylight
25 Jul - 21:53:59 10° W 22:03:32 33° SSW 22:09:23 10° SSE visible
26 Jul - 13:51:19 10° SSW 14:06:27 28° SE 14:19:47 10° E daylight
26 Jul - 16:02:53 10° SW 16:21:25 52° SSE 16:34:33 10° E daylight
26 Jul - 18:19:00 10° WSW 18:36:20 64° S 18:46:38 10° E daylight
26 Jul - 20:36:38 10° W 20:49:41 49° SSW 20:57:09 10° SE visible
26 Jul - 22:55:04 10° W 23:00:30 17° SW 23:04:35 10° S visible
27 Jul - 12:39:34 10° S 12:50:51 19° SE 13:01:46 10° E daylight
27 Jul - 14:47:28 10° SW 15:05:17 43° SSE 15:19:44 10° E daylight
27 Jul - 17:01:50 10° WSW 17:20:37 62° S 17:32:54 10° E daylight
27 Jul - 19:19:07 10° W 19:35:06 61° SSW 19:44:17 10° ESE daylight
27 Jul - 21:37:02 10° W 21:47:17 32° SW 21:53:40 10° SSE visible
28 Jul - 13:33:22 10° SSW 13:49:15 32° SE 14:03:52 10° E daylight
28 Jul - 15:45:22 10° SW 16:04:26 56° SSE 16:18:38 10° E daylight
28 Jul - 18:01:35 10° WSW 18:19:46 66° S 18:30:55 10° ESE daylight
28 Jul - 20:19:24 10° W 20:33:21 48° SSW 20:41:29 10° SE daylight
28 Jul - 22:38:35 10° W 22:44:11 16° SW 22:48:27 10° SSW visible
29 Jul - 12:21:08 10° S 12:33:38 22° SE 12:46:13 10° E daylight
29 Jul - 14:29:55 10° SW 14:48:07 47° SSE 15:03:39 10° E daylight
29 Jul - 16:44:25 10° WSW 17:03:47 65° S 17:17:02 10° E daylight
29 Jul - 19:01:45 10° W 19:18:37 60° SSW 19:28:36 10° ESE daylight
29 Jul - 21:20:00 10° W 21:30:55 31° SW 21:37:50 10° SSE visible
